Tracking 18957 objects as of 23-Jan-2018
HD Live streaming from Space Station
objects crossing your sky now

SERT 2

Track SERT 2 now!
10-day predictions
SERT 2 is classified as:


NORAD ID: 4327
Int'l Code: 1970-009A
Perigee: 1,044.8 km
Apogee: 1,051.9 km
Inclination: 99.3 °
Period: 106.0 minutes
Semi major axis: 7419 km
RCS: 5.0507 m2 (large)
Launch date: February 4, 1970
Source: United States (US)
Launch site: AIR FORCE WESTERN TEST RANGE (AFWTR)
aabbcc
Your satellite tracking list
Your tracking list is empty




NASA's NSSDC Master Catalog

Two Line Element Set (TLE):
1  4327U 70009A   18022.91099616 -.00000040 +00000-0 +21939-5 0  9990
2  4327 099.2999 110.1930 0004793 191.6733 298.6081 13.58473068376918
Source of the keplerian elements: AFSPC